Regional Weather Roundup
Issued by NWS

Home | Current Version | Previous Version | Text Only | Print | Product List | Glossary On
Versions: 1 2 3 4 5 6 7 8 9 10 11 12 13 14 15 16 17 18 19 20 21 22 23 24 25 26 27 28 29 30 31 32 33 34 35 36 37 38 39 40 41 42 43 44 45 46 47 48 49 50
000
ASUS44 KOUN 291510
RWROK

WEATHER ROUNDUP FOR OKLAHOMA
NATIONAL WEATHER SERVICE NORMAN OK
1000 AM CDT FRI AUG 29 2014

NOTE: "FAIR" INDICATES FEW OR NO CLOUDS BELOW 12,000 FEET WITH NO
      SIGNIFICANT WEATHER AND/OR OBSTRUCTIONS TO VISIBILITY.

OKZ001>007-009>012-014-015-017-291600-
NORTHWEST OKLAHOMA AND THE PANHANDLE

CITY           SKY/WX    TMP DP  RH WIND       PRES   REMARKS
GAGE           MOSUNNY   71  65  81 SW9       29.97S
ENID/WOODRING  CLOUDY    75  64  69 S14       29.92S
$$

OKZ016-021>023-033>039-044-045-291600-
SOUTHWEST OKLAHOMA

CITY           SKY/WX    TMP DP  RH WIND       PRES   REMARKS
LAWTON/REGL    PTSUNNY   73  68  84 SW6       29.95R
LAWTON/FT SILL PTSUNNY   72  68  86 SW8       29.95R
FREDERICK      CLOUDY    72  69  90 SW10      29.94R
CLINTON        CLOUDY    71  65  81 SW10      29.98R
HOBART         CLOUDY    70  67  90 SW8       29.97R
ALTUS AFB      PTSUNNY   74  69  85 SW8       29.97R
$$

OKZ018>020-024>031-291600-
CENTRAL OKLAHOMA

CITY           SKY/WX    TMP DP  RH WIND       PRES   REMARKS
OKLAHOMA CITY  PTSUNNY   74  66  76 SW8       29.95S
OKC/WILEY POST PTSUNNY   73  66  78 S6        29.95R
OKC/TINKER AFB PTSUNNY   75  65  70 SW9       29.95S
STILLWATER     CLOUDY    74  66  76 SW8       29.93S
GUTHRIE        PTSUNNY   74  66  76 VRB3      29.94S
$$

OKZ008-013-054>072-291600-
NORTHEAST OKLAHOMA

CITY           SKY/WX    TMP DP  RH WIND       PRES   REMARKS
TULSA          PTSUNNY   78  67  68 W3        29.91R
TULSA/JONES    MOSUNNY   76  68  76 VRB3      29.93R
PONCA CITY     PTSUNNY   73  65  75 SW9       29.93R
BARTLESVILLE   MOSUNNY   75  71  87 S5        29.93R
MUSKOGEE       MOSUNNY   76  68  76 S8        29.95R
$$

OKZ032-040>043-046>053-073>077-291600-
SOUTH CENTRAL/SOUTHEAST OKLAHOMA

CITY           SKY/WX    TMP DP  RH WIND       PRES   REMARKS
ARDMORE/DWNTWN CLOUDY    73  68  83 CALM      29.93S
MCALESTER      CLOUDY    76  69  79 SW5       29.95R
$$



USA.gov is the U.S. government's official web portal to all federal, state and local government web resources and services.